This is the latest recevied weather packets stored in our database for station/object DN9EM-3. If no packets are shown the sender has not sent any weather packets the latest 10 day(s).
| Time | Temp. | Humidity | Pressure | Rain* | Wind** | Luminosity | Snow |
|---|---|---|---|---|---|---|---|
| 1788109217 | 19.44° C | 81% | 1012.1 hPa | 0 mm | - | - | - |
| 1788108615 | 19.44° C | 80% | 1011.9 hPa | 0 mm | - | - | - |
| 1788108072 | 19.44° C | 79% | 1012 hPa | 0 mm | - | - | - |
| 1788107465 | 20° C | 77% | 1011.8 hPa | 0 mm | - | - | - |
| 1788106862 | 20° C | 77% | 1011.7 hPa | 0 mm | - | - | - |
| 1788106254 | 20° C | 77% | 1011.7 hPa | 0 mm | - | - | - |
| 1788105651 | 20° C | 77% | 1011.7 hPa | 0 mm | - | - | - |
| 1788105048 | 20° C | 77% | 1011.6 hPa | 0 mm | - | - | - |
| 1788104441 | 20° C | 77% | 1011.5 hPa | 0 mm | - | - | - |
| 1788103838 | 20° C | 78% | 1011.4 hPa | 0 mm | - | - | - |
| 1788103230 | 20° C | 77% | 1011.4 hPa | 0 mm | - | - | - |
| 1788102627 | 20° C | 79% | 1011.2 hPa | 0 mm | - | - | - |
| 1788102024 | 20° C | 83% | 1011.2 hPa | 0 mm | - | - | - |
| 1788101416 | 19.44° C | 84% | 1011.1 hPa | 0 mm | - | - | - |
| 1788100874 | 18.89° C | 86% | 1011 hPa | 0 mm | - | - | - |
| 1788100266 | 18.89° C | 87% | 1010.9 hPa | 0.25 mm | - | - | - |
| 1788099663 | 18.89° C | 88% | 1010.9 hPa | 0.25 mm | - | - | - |
| 1788099061 | 18.89° C | 89% | 1010.6 hPa | 0.25 mm | - | - | - |
| 1788098452 | 18.33° C | 89% | 1010.6 hPa | 0.25 mm | - | - | - |
| 1788097850 | 18.33° C | 89% | 1010.4 hPa | 0.25 mm | - | - | - |
| 1788097242 | 18.89° C | 89% | 1010.4 hPa | 1.02 mm | - | - | - |
| 1788096639 | 18.89° C | 89% | 1010.3 hPa | 2.29 mm | - | - | - |
| 1788096037 | 18.89° C | 89% | 1010.1 hPa | 2.29 mm | - | - | - |
| 1788095428 | 18.89° C | 90% | 1009.9 hPa | 2.29 mm | - | - | - |
| 1788094826 | 18.33° C | 91% | 1009.9 hPa | 2.29 mm | - | - | - |
* Rain latest hour (hover to see other rain measurements)
** Current wind speed in m/s (hover to see current wind gust speed)